Location: Newark
(7.0858°N, 171.3717°E)
Time: 17:19:50
(UTC+00:00)

Altair - Pass Details

Date: 27 November 2020
Orbit: 1501 x 1682 km, 47.2° (Epoch: 20 January)

Event Time Altitude Azimuth Distance (km) Brightness Sun altitude
Exits shadow 15:42:55 15° 20° (NNE) 3,318 9.2 -39.6°
Maximum altitude 15:45:48 17° 42° (NE) 3,185 9.3 -38.9°
Drops below altitude 10° 15:51:23 10° 79° (ENE) 3,747 10.1 -37.6°
Sets 15:56:03 0° 98° (E) 4,769 11.0 -36.6°
